FW2547 Weather Reports


Display with metric or nautical units.
time (UTC)temp
F
wind
direction
speed
MPH
gust
MPH
rain 1hr
in
rain 24hr
in
rain mn
in
humidity
%
barometer
mb
20260503231517 80 204 4.0 12.0 0.00 0.00 0.00 31 1010.3
20260503230016 80 165 11.0 16.0 0.00 0.00 0.00 31 1010.5
20260503224514 79 202 5.0 11.0 0.00 0.00 0.00 31 1010.5
20260503223013 80 202 3.0 5.0 0.00 0.00 0.00 31 1010.6
20260503221510 79 138 6.0 10.0 0.00 0.00 0.00 31 1010.8
20260503220008 79 144 6.0 10.0 0.00 0.00 0.00 31 1011.2
20260503214506 78 158 4.0 13.0 0.00 0.00 0.00 32 1011.5
20260503213003 80 144 5.0 10.0 0.00 0.00 0.00 31 1012.2
20260503211559 77 151 4.0 8.0 0.00 0.00 0.00 33 1012.7
20260503210104 76 71 4.0 9.0 0.00 0.00 0.00 34 1013.3
20260503204555 76 166 4.0 9.0 0.00 0.00 0.00 34 1013.6
20260503203051 76 130 7.0 12.0 0.00 0.00 0.00 34 1013.9
20260503201548 76 110 1.0 8.0 0.00 0.00 0.00 34 1014.1
20260503200049 75 127 5.0 9.0 0.00 0.00 0.00 34 1014.4
20260503194543 74 244 1.0 7.0 0.00 0.00 0.00 36 1014.7
20260503193047 73 39 3.0 11.0 0.00 0.00 0.00 36 1014.8
20260503191535 72 138 5.0 11.0 0.00 0.00 0.00 36 1015.2
20260503190035 72 175 2.0 9.0 0.00 0.00 0.00 38 1015.5
20260503184537 71 84 6.0 11.0 0.00 0.00 0.00 38 1015.6
20260503183025 70 69 8.0 11.0 0.00 0.00 0.00 39 1016.0
20260503181522 70 172 3.0 6.0 0.00 0.00 0.00 40 1016.5
20260503180024 69 172 5.0 10.0 0.00 0.00 0.00 41 1016.7
20260503174515 69 142 7.0 12.0 0.00 0.00 0.00 42 1017.0
20260503173014 68 134 6.0 11.0 0.00 0.00 0.00 43 1017.3
20260503171507 67 140 7.0 13.0 0.00 0.00 0.00 44 1017.4
20260503081546 60 112 5.0 9.0 0.00 0.00 0.00 54 1018.4
20260503071538 60 124 6.0 13.0 0.00 0.00 0.00 54 1019.0
20260503054527 62 80 3.0 5.0 0.00 0.00 0.00 51 1018.9
20260503053032 62 121 3.0 7.0 0.00 0.00 0.00 50 1018.8
20260503051522 63 136 5.0 9.0 0.00 0.00 0.00 49 1018.9
20260503050024 63 149 9.0 13.0 0.00 0.00 0.00 49 1018.7
20260503044520 63 130 11.0 16.0 0.00 0.00 0.00 47 1018.7
20260503043022 64 119 9.0 17.0 0.00 0.00 0.00 46 1018.6
20260503041519 65 137 9.0 14.0 0.00 0.00 0.00 45 1018.6
20260503040018 65 136 8.0 15.0 0.00 0.00 0.00 44 1018.6
20260503034533 66 105 9.0 15.0 0.00 0.00 0.00 43 1018.6
20260503033018 66 124 5.0 13.0 0.00 0.00 0.00 42 1018.5
20260503031515 67 92 7.0 13.0 0.00 0.00 0.00 42 1018.4
20260503030016 67 84 8.0 14.0 0.00 0.00 0.00 41 1018.2
20260503024515 68 46 10.0 14.0 0.00 0.00 0.00 40 1017.9
20260503023014 68 65 8.0 12.0 0.00 0.00 0.00 39 1017.6
20260503021513 68 53 8.0 12.0 0.00 0.00 0.00 38 1017.2
20260503020013 69 57 8.0 11.0 0.00 0.00 0.00 37 1017.1
20260503014517 69 49 7.0 12.0 0.00 0.00 0.00 37 1017.0
20260503013016 69 71 7.0 12.0 0.00 0.00 0.00 37 1016.7
20260503011510 69 52 8.0 12.0 0.00 0.00 0.00 36 1016.6
20260503010010 70 96 5.0 12.0 0.00 0.00 0.00 36 1016.6
20260503004510 69 38 8.0 12.0 0.00 0.00 0.00 36 1016.5
20260503003008 70 134 2.0 11.0 0.00 0.00 0.00 36 1016.7
20260503001508 70 202 2.0 10.0 0.00 0.00 0.00 36 1016.7
20260503000007 70 42 3.0 8.0 0.00 0.00 0.00 36 1016.6
20260502234505 70 105 3.0 8.0 0.00 0.00 0.00 37 1016.7
20260502233003 69 132 7.0 21.0 0.00 0.00 0.00 37 1016.8